Hilton Head Island, SC

2:50 AM EST on February 21, 2018 (GMT -0500)
Hilton Head

Weather History for KHXD - October, 2012

Change the Weather History Date:

Saturday, October 20, 2012

  Actual Average Record
Temperature  
Mean Temperature 65 °F -  
Max Temperature 75 °F 74 °F 89 °F (1963)
Min Temperature 55 °F 53 °F 39 °F (1989)
Growing Degree Days 15 (Base 50)    
Moisture  
Dew Point 51 °F    
Average Humidity 72    
Maximum Humidity 100    
Minimum Humidity 31    
Precipitation  
Precipitation 0.00 in - - ()
Sea Level Pressure  
Sea Level Pressure 29.90 in    
Wind  
Wind Speed 4 mph (WSW)    
Max Wind Speed 12 mph    
Max Gust Speed 21 mph    
Visibility 10 miles    
Events      
Averages and records for this station are not official NWS values.
T = Trace of Precipitation, MM = Missing Value Source: NWS Daily Summary

Daily Weather History Graph

Daily Weather History Graph

Search for Another Location

Airport or City:

Trip Planner

Search our weather history database for the weather conditions in past years. The results will help you decide how hot, cold, wet, or windy it might be!

Date:

Astronomy

Oct. 20, 2012 Rise Set
Actual Time 7:30 AM EDT 6:43 PM EDT
Civil Twilight 7:05 AM EDT 7:08 PM EDT
Nautical Twilight 6:37 AM EDT 7:37 PM EDT
Astronomical Twilight 6:08 AM EDT 8:05 PM EDT
Moon 12:55 PM EDT (10/20) 11:37 PM EDT (10/20)
Length of Visible Light 12h 03m
Length of Day
11h 13m
Waxing Crescent, 34% of the Moon is Illuminated
Oct 20
Waxing Crescent
Oct 21
First Quarter
Oct 29
Full
Nov 6
Last Quarter
Nov 13
New

Hourly Weather History & Observations

Time (EDT) Temp. Dew Point Humidity Pressure Visibility Wind Dir Wind Speed Gust Speed Precip Events Conditions
12:15 AM 59.0 °F 59.0 °F 100% 29.87 in 10.0 mi Calm Calm - 0.00 in   Clear
12:35 AM 59.0 °F 59.0 °F 100% 29.87 in 10.0 mi Calm Calm - 0.00 in   Clear
12:55 AM 59.0 °F 59.0 °F 100% 29.87 in 10.0 mi WSW 3.5 mph - 0.00 in   Clear
1:15 AM 59.0 °F 59.0 °F 100% 29.87 in 10.0 mi SW 5.8 mph - 0.00 in   Clear
1:35 AM 59.0 °F 59.0 °F 100% 29.87 in 10.0 mi SW 5.8 mph - 0.00 in   Clear
1:55 AM 60.8 °F 59.0 °F 94% 29.87 in 10.0 mi SW 4.6 mph - 0.00 in   Clear
2:15 AM 60.8 °F 57.2 °F 88% 29.87 in 10.0 mi SW 4.6 mph - 0.00 in   Clear
2:35 AM 62.6 °F 55.4 °F 77% 29.87 in 10.0 mi SW 5.8 mph - 0.00 in   Clear
2:55 AM 62.6 °F 55.4 °F 77% 29.87 in 10.0 mi SW 5.8 mph - 0.00 in   Clear
3:15 AM 62.6 °F 53.6 °F 72% 29.87 in 10.0 mi WSW 4.6 mph - 0.00 in   Clear
3:35 AM 60.8 °F 53.6 °F 77% 29.86 in 10.0 mi WSW 5.8 mph - 0.00 in   Clear
3:55 AM 62.6 °F 50.0 °F 63% 29.85 in 10.0 mi WSW 5.8 mph - 0.00 in   Clear
4:15 AM 60.8 °F 48.2 °F 63% 29.85 in 10.0 mi WSW 6.9 mph - 0.00 in   Clear
4:35 AM 60.8 °F 48.2 °F 63% 29.85 in 10.0 mi West 5.8 mph - 0.00 in   Clear
4:55 AM 60.8 °F 48.2 °F 63% 29.85 in 10.0 mi WSW 5.8 mph - 0.00 in   Clear
5:15 AM 60.8 °F 46.4 °F 59% 29.86 in 10.0 mi WSW 5.8 mph - 0.00 in   Clear
5:35 AM 59.0 °F 48.2 °F 67% 29.87 in 10.0 mi WSW 3.5 mph - 0.00 in   Clear
5:55 AM 59.0 °F 46.4 °F 63% 29.87 in 10.0 mi WSW 5.8 mph - 0.00 in   Clear
6:15 AM 59.0 °F 46.4 °F 63% 29.88 in 10.0 mi WSW 5.8 mph - 0.00 in   Clear
6:35 AM 59.0 °F 46.4 °F 63% 29.88 in 10.0 mi West 5.8 mph - 0.00 in   Clear
6:50 AM 59.0 °F 44.6 °F 59% 29.88 in 10.0 mi West 5.8 mph - N/A   Clear
7:50 AM 55.4 °F 46.4 °F 72% 29.91 in 10.0 mi Calm Calm - N/A   Clear
8:50 AM 59.0 °F 46.4 °F 63% 29.93 in 10.0 mi Calm Calm - N/A   Clear
9:50 AM 64.4 °F 48.2 °F 56% 29.93 in 10.0 mi WNW 4.6 mph - N/A   Clear
10:50 AM 69.8 °F 46.4 °F 43% 29.93 in 10.0 mi West 3.5 mph - N/A   Clear
12:50 PM 73.4 °F 46.4 °F 38% 29.91 in 10.0 mi SSW 4.6 mph - N/A   Clear
1:50 PM 75.2 °F 42.8 °F 31% 29.89 in 10.0 mi West 6.9 mph - N/A   Clear
2:50 PM 75.2 °F 44.6 °F 34% 29.87 in 9.0 mi West 11.5 mph 20.7 mph N/A   Clear
3:50 PM 75.2 °F 46.4 °F 36% 29.86 in 10.0 mi WSW 9.2 mph - N/A   Clear
4:50 PM 75.2 °F 46.4 °F 36% 29.87 in 10.0 mi WNW 5.8 mph - N/A   Clear
6:50 PM 64.4 °F 51.8 °F 64% 29.88 in 10.0 mi Calm Calm - N/A   Clear
7:50 PM 62.6 °F 51.8 °F 68% 29.91 in 10.0 mi Calm Calm - N/A   Clear
9:15 PM 59.0 °F 53.6 °F 82% 29.94 in 10.0 mi Calm Calm - 0.00 in   Clear
9:35 PM 57.2 °F 53.6 °F 88% 29.94 in 10.0 mi Calm Calm - 0.00 in   Clear
9:55 PM 57.2 °F 53.6 °F 88% 29.95 in 10.0 mi Calm Calm - 0.00 in   Clear
10:15 PM 57.2 °F 53.6 °F 88% 29.95 in 10.0 mi Calm Calm - 0.00 in   Clear
10:35 PM 57.2 °F 53.6 °F 88% 29.96 in 10.0 mi Calm Calm - 0.00 in   Clear
10:55 PM 57.2 °F 53.6 °F 88% 29.96 in 10.0 mi Calm Calm - 0.00 in   Clear
11:15 PM 57.2 °F 53.6 °F 88% 29.97 in 10.0 mi WSW 3.5 mph - 0.00 in   Clear
11:35 PM 57.2 °F 53.6 °F 88% 29.97 in 10.0 mi West 3.5 mph - 0.00 in   Clear
11:55 PM 55.4 °F 53.6 °F 94% 29.98 in 10.0 mi West 3.5 mph - 0.00 in   Clear